Wind_Speed
4 3 3 3 3 3 2 2 2 2 1 1 2 2 2 2 2 2 3 3 3 3 3 4 4 5 6 6 6 6 7 6 6 6 6 6 5 5 4 3 2 2 2 2 3 4 5 7 7
5 4 4 4 4 4 3 3 2 2 1 2 2 2 2 2 2 2 2 2 3 3 3 4 4 5 5 6 6 6 6 6 6 7 6 6 6 5 5 4 3 2 2 2 2 3 5 7 8
6 5 4 4 5 5 4 4 3 3 3 2 2 3 3 2 2 2 2 1 2 3 3 4 4 5 6 6 6 6 6 7 7 7 7 6 6 6 5 4 4 3 2 3 3 4 4 6 8
7 6 6 6 5 6 6 5 4 4 3 3 3 3 3 2 3 2 1 1 2 3 3 4 4 4 6 6 6 5 6 7 7 7 7 7 7 6 6 5 4 3 3 3 3 4 4 6 8
8 7 7 7 6 6 6 6 5 4 4 5 4 4 3 3 3 3 1 2 2 3 3 4 4 5 5 5 5 5 6 7 7 7 7 8 7 7 6 6 5 4 3 3 4 4 5 6 7
9 9 8 8 7 7 7 6 6 5 5 5 4 4 4 4 4 3 2 2 2 2 3 4 4 4 5 5 5 6 6 7 7 8 8 8 8 8 7 7 6 5 4 4 4 5 5 6 7
10 9 9 10 9 8 7 7 7 7 6 6 6 5 5 5 4 4 3 3 3 3 3 3 3 4 4 5 5 6 6 7 8 8 9 9 8 8 8 7 6 5 4 3 3 4 5 6 7
11 10 10 11 10 10 8 8 8 7 7 7 6 6 6 5 5 5 4 3 3 3 2 2 3 3 4 5 5 6 7 7 8 9 9 9 9 9 8 7 6 5 3 3 3 4 5 6 7
12 11 12 11 11 11 10 9 8 7 8 7 7 7 7 7 6 5 4 4 3 2 2 2 2 3 4 5 5 6 7 8 8 9 9 10 9 9 8 7 6 5 3 2 2 3 5 6 7
12 12 13 13 12 11 11 10 9 9 8 8 7 8 8 7 6 5 5 4 3 2 2 2 2 3 4 4 5 6 7 8 8 9 9 10 9 9 8 8 6 5 3 2 1 2 4 6 7
13 13 13 13 12 11 12 11 11 9 9 9 8 9 9 8 7 6 5 4 3 3 2 2 2 2 3 4 5 6 7 8 9 9 9 9 10 10 9 8 7 5 4 2 0 1 4 5 7
14 13 12 12 12 12 12 12 12 11 10 9 10 10 9 8 7 6 6 5 4 3 3 3 2 2 3 3 5 6 7 8 9 9 9 10 10 10 10 9 8 6 5 3 1 1 3 5 7
14 13 12 12 12 13 12 12 13 12 10 10 10 11 11 9 8 8 7 6 5 4 4 3 3 2 2 3 4 5 7 8 9 9 10 10 11 11 11 10 9 8 6 4 3 3 3 5 7
14 14 13 13 13 13 12 12 13 12 11 11 10 11 11 11 10 9 8 7 6 5 5 4 3 2 2 2 3 5 6 8 9 9 10 11 11 12 12 11 10 9 7 6 5 4 4 5 6
13 14 14 13 13 14 14 12 12 12 12 11 11 12 11 12 11 9 8 7 6 5 5 4 3 2 2 2 3 4 6 8 9 9 10 11 12 12 12 11 10 10 9 7 6 6 6 6 6
13 13 14 13 13 13 13 13 13 12 12 12 12 13 12 12 11 10 8 8 6 5 5 5 4 3 3 2 2 3 5 7 8 9 10 11 12 12 12 12 11 10 10 9 8 7 7 6 6
12 13 14 13 13 13 13 13 14 13 13 12 12 13 13 13 12 10 9 9 7 6 6 5 4 4 3 2 1 2 4 6 7 8 9 10 11 12 12 12 11 11 10 10 9 8 8 7 7
12 12 14 14 13 13 13 13 13 14 13 13 13 13 13 13 12 10 10 9 8 7 7 6 5 4 3 3 1 1 3 4 5 7 8 9 10 11 12 12 12 11 11 10 10 9 9 8 8
12 13 13 13 13 13 13 12 12 13 13 13 13 13 13 13 13 12 11 10 9 9 8 8 7 5 4 3 2 1 2 4 5 6 7 9 10 11 11 12 12 11 11 11 10 10 9 9 9
11 12 13 12 12 12 13 12 12 12 13 13 13 13 13 13 12 12 12 11 10 10 10 9 8 6 5 4 3 1 1 3 4 5 7 8 9 10 11 11 11 11 11 11 10 10 10 9 8
10 11 12 12 12 12 12 13 13 12 13 13 13 13 13 13 13 13 13 12 11 10 10 10 8 7 6 5 4 2 1 1 2 4 5 7 8 9 10 10 11 11 11 11 10 10 9 8 7
11 11 12 12 13 12 12 13 14 13 13 13 13 13 13 12 13 13 13 13 12 11 11 10 9 8 7 6 5 3 1 0 2 3 4 6 7 8 8 9 10 10 10 10 9 9 9 7 7
10 11 11 10 11 12 12 13 13 14 14 14 13 13 13 12 11 12 13 13 13 12 11 11 10 9 8 7 5 4 2 1 0 2 3 4 6 7 7 8 8 9 10 10 9 8 8 7 7
9 10 10 10 10 11 12 13 13 13 13 14 14 13 13 12 11 12 12 13 13 13 12 12 11 10 9 8 6 5 3 2 1 0 1 3 4 5 6 6 7 8 8 8 8 8 8 7 6
9 9 10 10 10 11 11 13 12 12 12 13 13 13 12 12 11 11 13 13 13 12 12 12 11 11 10 9 7 5 4 3 2 1 0 1 2 3 4 5 6 6 7 7 7 7 7 7 6
9 10 11 11 10 10 12 12 12 12 12 12 13 13 13 12 12 12 13 13 12 12 12 12 11 11 11 10 8 6 5 4 3 2 1 0 1 2 3 4 4 5 5 6 6 6 6 6 6
11 11 11 11 10 9 11 12 11 11 12 12 12 12 12 12 12 13 13 12 13 12 12 12 12 11 11 10 9 8 6 5 4 3 2 1 0 1 2 3 3 4 4 4 4 4 4 4 4
10 10 10 10 10 9 9 10 11 11 11 11 11 12 13 13 13 12 12 12 13 12 12 12 12 12 11 10 10 9 8 6 5 4 3 3 2 1 1 2 2 3 3 4 4 4 3 3 3
9 9 9 10 10 10 11 11 11 12 12 11 12 13 14 14 14 13 13 12 12 12 13 12 12 12 12 11 10 10 9 8 6 5 4 4 4 3 3 3 3 3 4 4 4 4 4 3 4
9 9 10 10 10 10 11 12 12 13 13 13 13 13 13 14 14 14 14 13 12 13 13 13 13 13 13 12 12 11 10 9 8 7 6 5 5 5 5 5 5 5 5 5 5 5 5 5 5
Wind_Direction
222 228 237 223 206 207 212 216 225 202 170 147 142 136 142 135 110 106 93 77 71 58 44 32 34 36 35 32 24 17 17 20 20 16 13 10 9 11 8 358 345 318 285 265 248 228 219 212 209
228 230 231 224 217 218 229 230 221 199 191 159 152 147 150 150 134 119 107 83 72 54 42 34 38 39 36 31 25 19 17 17 17 13 10 7 2 3 1 353 344 320 292 266 249 232 222 213 209
227 226 227 226 227 229 238 240 225 210 202 188 185 175 167 158 158 146 126 86 67 51 47 43 42 37 36 32 23 19 19 14 12 6 5 5 1 359 359 354 346 328 298 269 251 235 228 216 209
232 231 230 230 234 236 238 237 228 220 210 200 198 193 185 181 170 159 144 102 82 64 54 46 50 42 33 25 22 15 14 13 8 2 2 1 359 356 355 350 343 329 300 273 253 241 232 220 212
236 237 234 235 237 240 240 240 235 230 218 204 205 208 197 179 170 158 128 122 109 80 55 53 63 46 33 25 20 10 14 11 5 1 360 357 355 353 351 345 337 325 299 273 253 241 231 221 215
236 237 235 236 238 240 241 238 229 220 221 214 216 209 198 184 172 157 122 120 113 93 74 67 59 42 35 28 21 16 14 9 5 0 358 358 354 351 348 343 335 321 298 278 253 236 229 222 216
233 234 235 238 240 241 243 237 232 226 226 222 219 210 203 194 177 161 138 126 113 108 88 72 52 40 37 31 27 22 16 10 7 4 1 360 356 353 350 346 338 327 311 283 250 232 224 216 214
233 235 236 237 241 243 242 238 233 228 228 220 219 216 207 200 184 170 151 142 129 115 93 74 57 50 44 39 30 25 21 14 9 7 5 3 0 358 354 351 347 336 322 290 253 232 220 213 211
235 235 236 238 242 242 243 239 237 236 229 225 222 217 206 202 193 183 167 161 153 131 111 90 71 58 50 40 35 30 25 18 13 10 9 8 7 4 2 358 354 348 336 303 262 234 220 213 210
237 237 238 239 239 240 240 237 237 233 230 228 220 210 204 202 197 194 186 179 170 149 129 113 91 74 57 45 40 34 27 21 18 16 15 14 12 11 11 8 3 357 348 328 274 216 210 205 203
240 240 239 238 241 242 238 234 234 232 229 225 213 205 198 199 195 196 192 188 181 170 143 122 110 92 65 52 44 37 30 25 21 18 19 20 19 19 19 17 15 13 11 9 358 197 199 195 195
242 243 237 237 239 237 236 234 230 228 228 221 211 209 202 197 196 198 191 190 190 185 160 144 139 111 80 61 46 37 31 27 24 24 26 25 23 23 24 25 27 29 31 34 56 147 179 186 188
243 244 238 237 236 235 234 233 229 226 226 221 215 213 206 204 202 201 196 193 194 189 164 158 162 135 99 68 51 38 31 29 28 30 33 31 30 29 30 31 33 35 40 50 73 107 149 172 177
247 248 242 240 238 234 231 232 227 221 221 220 217 211 208 209 204 205 202 204 202 189 172 170 172 156 125 77 55 40 32 30 32 35 39 38 37 36 35 35 38 42 46 57 72 92 118 144 161
247 248 243 241 238 233 230 229 227 223 219 217 214 211 213 210 205 207 206 206 201 192 178 179 187 174 155 110 65 43 34 32 35 39 41 40 40 39 38 38 41 47 51 60 73 90 108 122 139
246 246 243 240 233 228 224 226 226 221 217 212 211 210 214 209 207 208 205 201 200 194 188 192 197 174 155 130 78 46 36 32 34 40 42 42 41 40 40 41 44 48 53 60 72 86 97 113 129
246 245 240 237 229 226 224 228 228 223 216 211 211 212 212 207 209 209 205 201 202 198 195 198 192 178 164 149 102 50 38 33 35 41 44 43 42 41 42 44 47 51 55 61 70 80 88 102 119
242 241 239 237 230 224 223 228 226 220 213 211 211 210 207 209 211 208 205 206 207 203 199 197 193 185 173 159 128 67 39 34 38 45 47 45 44 44 44 45 49 53 57 62 70 78 87 98 110
239 237 238 234 229 226 223 224 223 216 214 212 214 215 213 214 215 212 210 212 214 211 202 200 197 192 182 169 157 106 44 36 39 45 48 48 48 47 47 49 51 55 59 64 72 79 88 98 107
240 236 233 231 226 226 225 224 224 218 215 216 219 218 214 214 216 217 213 212 213 206 200 202 199 198 192 185 182 167 58 41 42 44 48 50 50 49 49 52 55 58 61 64 71 77 83 93 103
236 232 227 223 223 221 223 223 224 221 216 216 214 214 214 218 220 219 214 211 208 203 201 201 199 201 200 197 194 187 160 50 46 46 49 49 49 49 50 53 56 58 60 64 69 74 78 87 96
233 229 225 220 216 216 221 222 224 220 217 216 214 212 213 216 221 216 209 207 204 204 205 203 202 204 204 203 199 199 199 100 54 53 51 48 49 50 51 54 56 57 58 62 66 71 71 79 88
232 226 220 216 211 215 219 220 220 218 217 215 216 213 215 219 222 220 214 209 208 208 208 204 206 207 208 207 202 205 209 211 74 55 49 45 46 50 54 55 55 56 58 58 60 61 64 72 80
225 224 217 212 211 217 219 218 214 216 218 217 216 215 218 220 220 219 215 212 211 210 209 206 207 207 208 207 204 205 209 215 212 61 41 40 45 50 51 53 54 55 56 56 57 56 60 65 74
223 217 213 214 217 222 222 220 218 216 218 220 218 214 216 218 219 213 211 214 215 214 208 207 208 208 208 208 203 204 207 212 218 236 330 27 48 55 50 46 51 53 51 52 55 56 57 62 68
218 213 214 216 220 224 223 221 220 216 218 218 218 217 218 219 217 213 215 217 215 213 211 208 209 211 209 209 207 207 210 213 220 239 256 292 51 52 45 40 43 47 46 47 49 49 51 57 60
215 213 214 217 215 222 220 219 217 215 215 215 216 218 220 221 215 214 215 219 219 215 213 209 209 212 212 214 214 212 215 219 226 236 242 241 266 16 30 31 29 36 38 35 34 34 37 46 49
218 212 215 215 218 220 215 213 212 212 215 217 220 218 219 219 217 216 216 218 217 214 213 212 214 217 216 217 216 217 219 221 227 236 242 246 258 288 335 351 356 358 3 4 7 9 6 1 0
219 220 219 218 218 218 216 214 212 214 217 221 224 220 217 215 216 218 221 221 220 219 218 218 218 218 218 220 222 221 222 222 227 233 240 250 262 276 295 308 317 325 331 334 334 338 336 328 323
221 221 220 221 224 221 222 220 217 221 221 223 224 221 216 214 218 222 223 222 223 223 222 220 220 219 220 222 224 226 229 228 230 234 241 252 260 271 282 293 298 303 308 313 315 314 311 311 310
Height
5899 5900 5901 5902 5903 5903 5903 5903 5902 5902 5902 5902 5901 5901 5901 5902 5903 5904 5902 5900 5899 5899 5898 5897 5896 5895 5894 5893 5892 5891 5890 5889 5888 5886 5885 5884 5883 5882 5880 5880 5879 5878 5878 5877 5877 5877 5877 5878 5878
5898 5899 5901 5902 5902 5902 5903 5902 5902 5902 5902 5901 5901 5901 5901 5901 5901 5901 5900 5900 5899 5898 5898 5897 5896 5895 5894 5893 5892 5891 5890 5888 5887 5886 5885 5884 5882 5881 5880 5879 5878 5877 5877 5876 5876 5876 5876 5876 5877
5897 5898 5900 5901 5901 5901 5902 5901 5901 5901 5901 5901 5901 5901 5901 5901 5900 5900 5900 5900 5899 5898 5897 5897 5896 5895 5894 5893 5892 5891 5890 5888 5887 5886 5885 5883 5882 5880 5879 5878 5877 5876 5875 5875 5875 5875 5875 5875 5876
5896 5898 5899 5900 5900 5900 5900 5900 5900 5900 5900 5900 5900 5900 5900 5900 5900 5900 5899 5899 5899 5898 5897 5896 5896 5895 5894 5893 5892 5891 5889 5888 5887 5885 5884 5883 5881 5880 5878 5877 5876 5875 5874 5874 5874 5874 5874 5874 5875
5895 5897 5898 5898 5898 5898 5898 5899 5899 5899 5899 5899 5900 5900 5899 5900 5899 5899 5899 5899 5898 5898 5897 5896 5896 5895 5894 5893 5892 5891 5889 5888 5887 5885 5884 5882 5880 5879 5877 5876 5875 5874 5873 5873 5872 5872 5872 5873 5873
5894 5895 5896 5896 5896 5897 5897 5897 5898 5898 5898 5899 5899 5899 5899 5899 5899 5899 5899 5898 5898 5898 5897 5897 5896 5896 5894 5894 5892 5891 5890 5888 5887 5885 5883 5881 5880 5878 5876 5875 5874 5873 5872 5871 5871 5871 5871 5871 5872
5892 5893 5894 5894 5895 5895 5896 5896 5896 5897 5897 5898 5898 5898 5898 5898 5898 5898 5898 5898 5898 5898 5897 5897 5896 5896 5895 5894 5893 5891 5890 5888 5887 5885 5883 5881 5879 5877 5875 5874 5872 5871 5870 5870 5869 5869 5869 5870 5871
5889 5892 5891 5892 5893 5894 5894 5894 5895 5895 5896 5896 5897 5897 5897 5898 5898 5898 5898 5898 5898 5898 5898 5897 5897 5896 5895 5894 5893 5891 5890 5888 5887 5885 5883 5880 5878 5876 5874 5873 5871 5870 5869 5868 5868 5868 5868 5869 5869
5887 5890 5889 5890 5891 5892 5892 5893 5893 5894 5894 5895 5895 5896 5897 5897 5897 5897 5898 5898 5898 5898 5898 5898 5897 5896 5895 5894 5893 5892 5890 5888 5887 5885 5882 5880 5878 5876 5874 5872 5870 5869 5868 5867 5867 5866 5867 5867 5868
5885 5886 5887 5887 5888 5889 5890 5891 5891 5892 5893 5893 5894 5894 5895 5896 5896 5897 5897 5898 5898 5898 5898 5898 5897 5897 5896 5895 5894 5892 5891 5889 5887 5885 5882 5880 5878 5875 5873 5871 5869 5868 5867 5866 5866 5865 5865 5866 5867
5882 5883 5884 5884 5885 5886 5887 5888 5889 5890 5891 5892 5892 5893 5894 5895 5895 5896 5897 5897 5898 5898 5898 5898 5897 5897 5896 5895 5894 5893 5891 5889 5887 5885 5882 5880 5878 5875 5873 5871 5869 5867 5866 5865 5864 5864 5864 5865 5865
5879 5880 5881 5882 5883 5884 5885 5886 5887 5888 5890 5890 5891 5892 5893 5894 5895 5895 5896 5897 5898 5898 5898 5898 5898 5897 5896 5896 5895 5893 5892 5890 5888 5885 5883 5881 5878 5876 5873 5871 5869 5867 5865 5864 5864 5863 5863 5863 5864
5876 5877 5878 5879 5880 5881 5882 5883 5885 5886 5887 5888 5889 5890 5891 5893 5894 5895 5896 5896 5897 5898 5898 5898 5898 5897 5897 5896 5895 5894 5892 5891 5888 5886 5884 5881 5879 5876 5874 5871 5869 5867 5865 5864 5863 5863 5863 5863 5864
5874 5874 5875 5876 5878 5879 5880 5881 5883 5884 5885 5887 5888 5889 5890 5891 5893 5894 5895 5896 5897 5897 5898 5898 5898 5897 5897 5897 5896 5895 5893 5891 5889 5887 5884 5882 5880 5877 5875 5872 5870 5868 5866 5864 5863 5863 5863 5863 5864
5871 5872 5873 5874 5875 5876 5878 5880 5881 5882 5883 5885 5886 5887 5889 5890 5892 5893 5894 5895 5896 5897 5897 5897 5898 5897 5897 5897 5896 5895 5894 5892 5890 5888 5885 5883 5881 5878 5876 5873 5871 5869 5867 5865 5864 5864 5864 5864 5864
5868 5869 5870 5871 5872 5874 5877 5878 5879 5880 5881 5883 5884 5886 5887 5888 5890 5892 5893 5894 5895 5896 5897 5897 5897 5897 5897 5897 5896 5895 5894 5892 5890 5888 5886 5884 5882 5880 5877 5875 5873 5871 5869 5867 5866 5865 5865 5865 5865
5865 5866 5867 5869 5870 5872 5874 5875 5877 5878 5880 5881 5883 5884 5886 5887 5889 5891 5892 5893 5895 5896 5896 5897 5897 5897 5897 5897 5896 5896 5894 5893 5891 5889 5887 5885 5883 5881 5879 5876 5874 5872 5870 5869 5868 5867 5866 5866 5866
5863 5864 5865 5867 5868 5870 5871 5873 5874 5876 5878 5879 5881 5883 5884 5886 5888 5889 5891 5892 5894 5895 5895 5896 5897 5897 5897 5897 5897 5896 5895 5894 5892 5890 5888 5886 5884 5882 5880 5878 5876 5874 5873 5871 5870 5869 5868 5868 5868
5860 5861 5863 5864 5866 5867 5869 5871 5872 5874 5876 5878 5880 5881 5883 5885 5886 5888 5890 5891 5892 5894 5895 5896 5896 5897 5897 5897 5897 5896 5895 5894 5893 5891 5889 5887 5886 5884 5882 5880 5878 5876 5875 5874 5872 5871 5871 5870 5870
5857 5859 5860 5862 5863 5865 5867 5869 5870 5872 5874 5876 5878 5879 5881 5883 5885 5886 5888 5890 5891 5892 5893 5895 5896 5896 5896 5897 5897 5896 5896 5895 5894 5892 5890 5889 5887 5885 5883 5882 5880 5879 5877 5876 5875 5874 5873 5873 5872
5855 5857 5858 5859 5861 5863 5865 5867 5869 5870 5872 5874 5876 5877 5879 5881 5883 5884 5886 5888 5890 5891 5892 5894 5895 5896 5896 5896 5896 5896 5896 5895 5894 5893 5892 5890 5888 5887 5885 5884 5882 5881 5880 5879 5877 5876 5875 5875 5874
5854 5855 5856 5858 5859 5861 5864 5866 5867 5868 5870 5871 5873 5875 5878 5879 5881 5883 5884 5886 5888 5889 5891 5892 5894 5895 5895 5896 5896 5896 5896 5895 5895 5894 5893 5891 5890 5888 5887 5886 5885 5883 5882 5881 5879 5878 5877 5876 5875
5852 5853 5854 5856 5858 5860 5862 5864 5866 5866 5868 5870 5872 5874 5876 5878 5879 5881 5883 5885 5887 5888 5890 5891 5893 5894 5895 5895 5896 5896 5896 5895 5895 5894 5893 5892 5891 5890 5889 5888 5887 5885 5884 5883 5881 5880 5879 5877 5876
5850 5852 5853 5854 5856 5858 5860 5862 5864 5865 5866 5868 5870 5872 5874 5876 5878 5879 5881 5883 5885 5886 5888 5890 5891 5892 5893 5894 5895 5895 5895 5895 5895 5895 5894 5893 5892 5891 5890 5889 5888 5887 5886 5885 5883 5882 5880 5879 5878
5849 5851 5853 5854 5855 5857 5858 5860 5862 5863 5864 5866 5868 5870 5872 5874 5876 5877 5879 5882 5883 5885 5886 5888 5890 5891 5892 5893 5894 5894 5895 5895 5895 5895 5894 5894 5893 5892 5891 5890 5889 5888 5887 5886 5885 5884 5882 5881 5880
5847 5849 5852 5853 5854 5855 5856 5858 5861 5861 5862 5864 5866 5868 5870 5872 5874 5876 5878 5880 5881 5883 5885 5887 5888 5890 5891 5892 5893 5894 5894 5894 5895 5895 5894 5894 5893 5893 5892 5891 5890 5889 5888 5887 5886 5885 5884 5883 5882
5846 5847 5849 5851 5852 5853 5855 5856 5858 5859 5861 5862 5864 5866 5869 5871 5872 5874 5876 5878 5880 5881 5883 5885 5887 5888 5890 5891 5892 5893 5893 5894 5894 5894 5894 5894 5893 5893 5892 5891 5891 5890 5889 5888 5887 5886 5885 5884 5883
5844 5845 5847 5849 5850 5852 5853 5855 5857 5858 5859 5861 5863 5864 5866 5868 5870 5872 5874 5876 5877 5879 5881 5883 5885 5886 5888 5889 5890 5892 5892 5893 5893 5894 5894 5893 5893 5893 5892 5891 5891 5890 5889 5889 5888 5887 5886 5885 5884
5843 5844 5845 5847 5849 5850 5852 5855 5855 5856 5858 5859 5861 5862 5864 5866 5868 5870 5872 5874 5875 5877 5879 5881 5883 5884 5886 5888 5889 5890 5891 5892 5892 5892 5892 5893 5892 5892 5892 5891 5890 5890 5889 5888 5887 5886 5885 5885 5884
5841 5842 5844 5846 5847 5848 5850 5854 5852 5854 5855 5857 5858 5860 5862 5864 5866 5868 5870 5872 5873 5875 5877 5879 5880 5882 5884 5886 5887 5888 5889 5890 5891 5891 5891 5891 5891 5891 5891 5890 5889 5889 5888 5887 5887 5886 5885 5884 5883